| time (UTC) | temp F | wind direction | speed knots | gust knots | rain 1hr in | rain 24hr in | rain mn in | humidity % | barometer mb |
| 20260831220302 | 68 | 140 | 2.6 | 0.0 | 0.00 | 0.00 | 0.00 | 53 | 1017.0 |
| 20260831214802 | 68 | 1.7 | 0.0 | 0.00 | 0.00 | 0.00 | 56 | 1017.0 | |
| 20260831213302 | 68 | 1.7 | 0.0 | 0.00 | 0.00 | 0.00 | 56 | 1017.0 | |
| 20260831211801 | 68 | 120 | 4.3 | 0.0 | 0.00 | 0.00 | 0.00 | 56 | 1017.0 |
| 20260831210301 | 68 | 120 | 4.3 | 0.0 | 0.00 | 0.00 | 0.00 | 56 | 1017.0 |
| 20260831204803 | 70 | 110 | 4.3 | 0.0 | 0.00 | 0.00 | 0.00 | 50 | 1017.0 |
| 20260831203303 | 70 | 110 | 4.3 | 0.0 | 0.00 | 0.00 | 0.00 | 50 | 1017.0 |
| 20260831201802 | 72 | 130 | 5.2 | 0.0 | 0.00 | 0.00 | 0.00 | 44 | 1017.0 |
| 20260831200301 | 72 | 130 | 5.2 | 0.0 | 0.00 | 0.00 | 0.00 | 44 | 1017.0 |
| 20260831194802 | 72 | 130 | 4.3 | 0.0 | 0.00 | 0.00 | 0.00 | 47 | 1016.0 |
| 20260831193302 | 72 | 130 | 4.3 | 0.0 | 0.00 | 0.00 | 0.00 | 47 | 1016.0 |
| 20260831191802 | 73 | 130 | 5.2 | 0.0 | 0.00 | 0.00 | 0.00 | 41 | 1016.0 |
| 20260831190304 | 73 | 130 | 5.2 | 0.0 | 0.00 | 0.00 | 0.00 | 41 | 1016.0 |
| 20260831184803 | 75 | 140 | 6.1 | 0.0 | 0.00 | 0.00 | 0.00 | 44 | 1016.0 |
| 20260831183302 | 75 | 140 | 6.1 | 0.0 | 0.00 | 0.00 | 0.00 | 44 | 1016.0 |
| 20260831181803 | 75 | 110 | 1.7 | 0.0 | 0.00 | 0.00 | 0.00 | 44 | 1016.0 |
| 20260831180302 | 75 | 110 | 1.7 | 0.0 | 0.00 | 0.00 | 0.00 | 44 | 1016.0 |
| 20260831174802 | 75 | 120 | 1.7 | 0.0 | 0.00 | 0.00 | 0.00 | 44 | 1016.0 |
| 20260831173302 | 75 | 120 | 1.7 | 0.0 | 0.00 | 0.00 | 0.00 | 44 | 1016.0 |
| 20260831171802 | 79 | 130 | 4.3 | 0.0 | 0.00 | 0.00 | 0.00 | 42 | 1016.0 |
| 20260831170304 | 79 | 130 | 4.3 | 0.0 | 0.00 | 0.00 | 0.00 | 42 | 1016.0 |
| 20260831164802 | 81 | 130 | 5.2 | 0.0 | 0.00 | 0.00 | 0.00 | 39 | 1016.0 |
| 20260831163301 | 81 | 130 | 5.2 | 0.0 | 0.00 | 0.00 | 0.00 | 39 | 1016.0 |
| 20260831161802 | 82 | 130 | 5.2 | 0.0 | 0.00 | 0.00 | 0.00 | 35 | 1016.0 |
| 20260831160302 | 82 | 130 | 5.2 | 0.0 | 0.00 | 0.00 | 0.00 | 35 | 1016.0 |
| 20260831154802 | 86 | 110 | 5.2 | 0.0 | 0.00 | 0.00 | 0.00 | 31 | 1016.0 |
| 20260831153302 | 86 | 110 | 5.2 | 0.0 | 0.00 | 0.00 | 0.00 | 31 | 1016.0 |
| 20260831151802 | 88 | 120 | 6.1 | 0.0 | 0.00 | 0.00 | 0.00 | 29 | 1016.0 |
| 20260831150302 | 88 | 120 | 6.1 | 0.0 | 0.00 | 0.00 | 0.00 | 29 | 1016.0 |
| 20260831144802 | 88 | 90 | 6.1 | 0.0 | 0.00 | 0.00 | 0.00 | 27 | 1016.0 |
| 20260831143302 | 88 | 90 | 6.1 | 0.0 | 0.00 | 0.00 | 0.00 | 27 | 1016.0 |
| 20260831141802 | 90 | 90 | 6.1 | 0.0 | 0.00 | 0.00 | 0.00 | 27 | 1016.0 |
| 20260831140309 | 90 | 90 | 6.1 | 0.0 | 0.00 | 0.00 | 0.00 | 27 | 1016.0 |
| 20260831134802 | 88 | 2.6 | 0.0 | 0.00 | 0.00 | 0.00 | 27 | 1016.0 | |
| 20260831133303 | 88 | 2.6 | 0.0 | 0.00 | 0.00 | 0.00 | 27 | 1016.0 | |
| 20260831131802 | 88 | 7.0 | 0.0 | 0.00 | 0.00 | 0.00 | 25 | 1016.0 | |
| 20260831130302 | 88 | 7.0 | 0.0 | 0.00 | 0.00 | 0.00 | 25 | 1016.0 | |
| 20260831124819 | 88 | 100 | 6.1 | 0.0 | 0.00 | 0.00 | 0.00 | 31 | 1017.0 |
| 20260831123301 | 88 | 100 | 6.1 | 0.0 | 0.00 | 0.00 | 0.00 | 31 | 1017.0 |
| 20260831121802 | 88 | 130 | 7.8 | 0.0 | 0.00 | 0.00 | 0.00 | 31 | 1017.0 |
| 20260831120302 | 88 | 130 | 7.8 | 0.0 | 0.00 | 0.00 | 0.00 | 31 | 1017.0 |
| 20260831114802 | 88 | 110 | 7.0 | 0.0 | 0.00 | 0.00 | 0.00 | 31 | 1017.0 |
| 20260831113301 | 88 | 110 | 7.0 | 0.0 | 0.00 | 0.00 | 0.00 | 31 | 1017.0 |
| 20260831111822 | 86 | 80 | 7.8 | 0.0 | 0.00 | 0.00 | 0.00 | 33 | 1017.0 |
| 20260831110302 | 86 | 80 | 7.8 | 0.0 | 0.00 | 0.00 | 0.00 | 33 | 1017.0 |
| 20260831104802 | 86 | 130 | 5.2 | 0.0 | 0.00 | 0.00 | 0.00 | 33 | 1018.0 |
| 20260831103302 | 86 | 130 | 5.2 | 0.0 | 0.00 | 0.00 | 0.00 | 33 | 1018.0 |
| 20260831101802 | 86 | 80 | 6.1 | 0.0 | 0.00 | 0.00 | 0.00 | 31 | 1018.0 |
| 20260831100302 | 86 | 80 | 6.1 | 0.0 | 0.00 | 0.00 | 0.00 | 31 | 1018.0 |
| 20260831094802 | 84 | 120 | 6.1 | 0.0 | 0.00 | 0.00 | 0.00 | 31 | 1018.0 |
| 20260831093415 | 84 | 110 | 5.2 | 0.0 | 0.00 | 0.00 | 0.00 | 35 | 1018.0 |
| 20260831091802 | 84 | 110 | 5.2 | 0.0 | 0.00 | 0.00 | 0.00 | 35 | 1018.0 |
| 20260831090302 | 84 | 110 | 5.2 | 0.0 | 0.00 | 0.00 | 0.00 | 35 | 1018.0 |
| 20260831084802 | 82 | 110 | 6.1 | 0.0 | 0.00 | 0.00 | 0.00 | 35 | 1018.0 |
| 20260831083302 | 82 | 110 | 6.1 | 0.0 | 0.00 | 0.00 | 0.00 | 35 | 1018.0 |
| 20260831081915 | 82 | 80 | 6.1 | 0.0 | 0.00 | 0.00 | 0.00 | 37 | 1018.0 |
| 20260831080302 | 82 | 80 | 6.1 | 0.0 | 0.00 | 0.00 | 0.00 | 37 | 1018.0 |
| 20260831074815 | 79 | 80 | 6.1 | 0.0 | 0.00 | 0.00 | 0.00 | 45 | 1019.0 |
| 20260831073302 | 79 | 80 | 6.1 | 0.0 | 0.00 | 0.00 | 0.00 | 45 | 1019.0 |
| 20260831071830 | 77 | 60 | 7.0 | 0.0 | 0.00 | 0.00 | 0.00 | 51 | 1018.0 |
| 20260831070302 | 77 | 60 | 7.0 | 0.0 | 0.00 | 0.00 | 0.00 | 51 | 1018.0 |
| 20260831064802 | 73 | 60 | 4.3 | 0.0 | 0.00 | 0.00 | 0.00 | 57 | 1018.0 |
| 20260831063302 | 73 | 60 | 4.3 | 0.0 | 0.00 | 0.00 | 0.00 | 57 | 1018.0 |
| 20260831061803 | 72 | 50 | 4.3 | 0.0 | 0.00 | 0.00 | 0.00 | 65 | 1019.0 |
| 20260831060302 | 72 | 50 | 4.3 | 0.0 | 0.00 | 0.00 | 0.00 | 65 | 1019.0 |
| 20260831054803 | 68 | 70 | 4.3 | 0.0 | 0.00 | 0.00 | 0.00 | 73 | 1019.0 |
| 20260831053302 | 68 | 70 | 4.3 | 0.0 | 0.00 | 0.00 | 0.00 | 73 | 1019.0 |
| 20260831051802 | 68 | 80 | 5.2 | 0.0 | 0.00 | 0.00 | 0.00 | 73 | 1018.0 |
| 20260831050302 | 68 | 80 | 5.2 | 0.0 | 0.00 | 0.00 | 0.00 | 73 | 1018.0 |
| 20260831044804 | 64 | 80 | 4.3 | 0.0 | 0.00 | 0.00 | 0.00 | 83 | 1018.0 |
| 20260831043306 | 64 | 80 | 4.3 | 0.0 | 0.00 | 0.00 | 0.00 | 83 | 1018.0 |
| 20260831041802 | 64 | 80 | 2.6 | 0.0 | 0.00 | 0.00 | 0.00 | 83 | 1018.0 |
| 20260831040302 | 64 | 80 | 2.6 | 0.0 | 0.00 | 0.00 | 0.00 | 83 | 1018.0 |
| 20260831034802 | 64 | 30 | 5.2 | 0.0 | 0.00 | 0.00 | 0.00 | 83 | 1018.0 |
| 20260831033302 | 64 | 30 | 5.2 | 0.0 | 0.00 | 0.00 | 0.00 | 83 | 1018.0 |
| 20260831031802 | 64 | 20 | 2.6 | 0.0 | 0.00 | 0.00 | 0.00 | 83 | 1018.0 |
| 20260831030303 | 64 | 20 | 2.6 | 0.0 | 0.00 | 0.00 | 0.00 | 83 | 1018.0 |
| 20260831024802 | 64 | 70 | 4.3 | 0.0 | 0.00 | 0.00 | 0.00 | 83 | 1018.0 |
| 20260831023310 | 64 | 70 | 4.3 | 0.0 | 0.00 | 0.00 | 0.00 | 83 | 1018.0 |
| 20260831021802 | 64 | 30 | 4.3 | 0.0 | 0.00 | 0.00 | 0.00 | 88 | 1018.0 |
| 20260831020304 | 64 | 30 | 4.3 | 0.0 | 0.00 | 0.00 | 0.00 | 88 | 1018.0 |
| 20260831014802 | 66 | 20 | 4.3 | 0.0 | 0.00 | 0.00 | 0.00 | 83 | 1018.0 |
| 20260831013301 | 66 | 20 | 4.3 | 0.0 | 0.00 | 0.00 | 0.00 | 83 | 1018.0 |
| 20260831011803 | 66 | 10 | 4.3 | 0.0 | 0.00 | 0.00 | 0.00 | 83 | 1018.0 |
| 20260831010302 | 66 | 10 | 4.3 | 0.0 | 0.00 | 0.00 | 0.00 | 83 | 1018.0 |
| 20260831004802 | 66 | 360 | 5.2 | 0.0 | 0.00 | 0.00 | 0.00 | 78 | 1018.0 |
| 20260831003302 | 66 | 360 | 5.2 | 0.0 | 0.00 | 0.00 | 0.00 | 78 | 1018.0 |
| 20260831001801 | 66 | 10 | 5.2 | 0.0 | 0.00 | 0.00 | 0.00 | 78 | 1018.0 |
| 20260831000303 | 66 | 10 | 5.2 | 0.0 | 0.00 | 0.00 | 0.00 | 78 | 1018.0 |
| 20260830234802 | 66 | 40 | 4.3 | 0.0 | 0.00 | 0.00 | 0.00 | 78 | 1018.0 |
| 20260830233302 | 66 | 40 | 4.3 | 0.0 | 0.00 | 0.00 | 0.00 | 78 | 1018.0 |
| 20260830231803 | 68 | 60 | 2.6 | 0.0 | 0.00 | 0.00 | 0.00 | 78 | 1018.0 |
| 20260830230303 | 68 | 60 | 2.6 | 0.0 | 0.00 | 0.00 | 0.00 | 78 | 1018.0 |
| 20260830224802 | 68 | 90 | 4.3 | 0.0 | 0.00 | 0.00 | 0.00 | 73 | 1018.0 |
| 20260830223302 | 68 | 90 | 4.3 | 0.0 | 0.00 | 0.00 | 0.00 | 73 | 1018.0 |
| 20260830221801 | 70 | 100 | 4.3 | 0.0 | 0.00 | 0.00 | 0.00 | 69 | 1018.0 |